Content
SEND FEEDBACK

Daily
Averages
Monthly
Summary
United States of America

TUSTIN, MICHIGAN


Home > North America > United States > Michigan
Elevation: 416 meters     Latitude: 44 16N     Longitude: 085 24W

WEATHER
 
SELECT A DAY
Number of Records: 447,533;   Date Range: 1/1/95 - 8/12/14
 
SHARE

PRINT THIS DATA

[ ← Previous Day ]
WEATHER ALMANAC - 31 JANUARY, 2013
[ Next Day → ]
[ °F ]   °C
Weather ElementAverageHighLow
Temperature-8.3 °C-6 °C (12:35 am)-10 °C (9:17 pm)
Dewpoint-11.8 °C-8.3 °C (12:35 am)-14 °C (1:35 pm)
Humidity76.3 %84 % (12:35 am)66 % (1:35 pm)
Barometer998 hPa1007.5 hPa (9:17 pm)989.8 hPa (12:35 am)
Wind Speed24 km/h33.3 km/h (1:35 am)
Wind Gust46.3 km/h (1:55 am)
Weather ElementAverage
Visibility7.1 km
Wind DirectionWNW (281.4 °)

Weather ElementTotal
Precipitation---
Heating Degree Days26.3 (Base 18.3)
Averaged from 50 records on 31 January, 2013
WEATHER CONDITIONS BREAKOUT
WIND DIRECTION BREAKOUT
WEATHER BY HOUR - 31 JANUARY, 2013
[ °F ]   °C
Local TimeTemperatureDewpointHumidityBarometerVisibilityWind DirectionWind SpeedGust SpeedPrecipitationEventsConditions
12:35 AM-6 °C-8.3 °C84 %989.8 hPa3.2 kmWest (280°)22.2 km/h29.6 km/hSnowLight Snow
12:55 AM-6 °C-8.3 °C84 %990.5 hPa3.2 kmWest (270°)29.6 km/h40.7 km/hSnowLight Snow
1:14 AM-6.3 °C-8.9 °C82 %990.9 hPa3.2 kmWest (280°)24.1 km/h38.9 km/hSnowLight Snow
1:35 AM-7.1 °C-9.6 °C83 %991.2 hPa3.2 kmWest (280°)33.3 km/h40.7 km/hSnowLight Snow
1:55 AM-7.3 °C-10 °C81 %991.5 hPa4.8 kmWest (280°)25.9 km/h46.3 km/hSnowLight Snow
2:15 AM-7.3 °C-10.1 °C81 %991.9 hPa4.8 kmWest (280°)31.5 km/h42.6 km/hSnowLight Snow
2:35 AM-7.3 °C-10.2 °C80 %992.2 hPa6.4 kmWest (280°)20.4 km/h44.4 km/hSnowLight Snow
2:55 AM-7.3 °C-10.2 °C80 %992.2 hPa6.4 kmWNW (290°)31.5 km/h44.4 km/hSnowLight Snow
3:15 AM-7.3 °C-10.2 °C80 %992.9 hPa4.8 kmWest (280°)24.1 km/h38.9 km/hSnowLight Snow
3:35 AM-7.3 °C-10 °C81 %992.9 hPa4 kmWest (280°)25.9 km/h40.7 km/hSnowLight Snow
3:54 AM-7.6 °C-10.3 °C81 %993.2 hPa4 kmWest (280°)33.3 km/h40.7 km/hSnowLight Snow
4:15 AM-8 °C-10.8 °C81 %993.6 hPa4.8 kmWest (280°)27.8 km/h35.2 km/hSnowLight Snow
4:35 AM-8.5 °C-11.5 °C79 %993.9 hPa4.8 kmWest (280°)27.8 km/h42.6 km/hSnowLight Snow
4:54 AM-8.5 °C-11.5 °C79 %994.2 hPa4.8 kmWest (280°)24.1 km/h46.3 km/hSnowLight Snow
5:15 AM-8.6 °C-11.6 °C79 %994.6 hPa6.4 kmWest (280°)27.8 km/h38.9 km/hSnowLight Snow
5:35 AM-8.6 °C-11.8 °C78 %994.9 hPa11.3 kmWest (280°)25.9 km/h38.9 km/hSnowLight Snow
5:54 AM-8.6 °C-11.8 °C78 %995.3 hPa11.3 kmWNW (290°)29.6 km/h37 km/hSnowLight Snow
6:15 AM-8.6 °C-11.9 °C77 %995.3 hPa8 kmWNW (290°)29.6 km/h42.6 km/hSnowLight Snow
6:35 AM-8.7 °C-11.8 °C79 %995.6 hPa8 kmWNW (290°)33.3 km/h42.6 km/hSnowLight Snow
6:54 AM-8.7 °C-12.1 °C77 %995.9 hPa11.3 kmWNW (290°)29.6 km/h46.3 km/hSnowLight Snow
7:15 AM-8.7 °C-12.1 °C77 %996.3 hPa11.3 kmWNW (290°)24.1 km/h42.6 km/hSnowLight Snow
7:35 AM-8.7 °C-12 °C77 %997 hPa6.4 kmWest (280°)22.2 km/h37 km/hSnowLight Snow
7:54 AM-8.7 °C-12 °C77 %997.3 hPa4.8 kmWNW (290°)27.8 km/h37 km/hSnowLight Snow
8:15 AM-8.7 °C-12 °C77 %997.3 hPa4.8 kmWNW (290°)18.5 km/hSnowLight Snow
8:35 AM-8.7 °C-11.6 °C80 %998 hPa1.9 kmWest (280°)13 km/hSnowLight Snow
8:54 AM-8.7 °C-11.8 °C79 %998 hPa4 kmWest (280°)20.4 km/h33.3 km/hSnowLight Snow
9:15 AM-8.7 °C-11.6 °C80 %998.6 hPa3.2 kmWest (280°)16.7 km/h29.6 km/hSnowLight Snow
9:35 AM-8.7 °C-12 °C77 %999 hPa11.3 kmWNW (290°)27.8 km/h35.2 km/hSnowLight Snow
9:55 AM-8.7 °C-12.1 °C77 %999.3 hPa4.8 kmWest (280°)18.5 km/h29.6 km/hSnowLight Snow
10:35 AM-8.7 °C-12.3 °C76 %1000.3 hPa6.4 kmWest (270°)16.7 km/h31.5 km/hSnowLight Snow
10:55 AM-8.7 °C-12.2 °C76 %1000.3 hPa2.9 kmWest (270°)24.1 km/h35.2 km/hSnowLight Snow
11:15 AM-8.7 °C-12.7 °C73 %1001 hPa4 kmWNW (290°)27.8 km/h40.7 km/hSnowLight Snow
11:35 AM-8.7 °C-13 °C72 %1001.4 hPa8 kmWNW (300°)22.2 km/h40.7 km/hSnowLight Snow
12:00 PM-8.1 °C-12.9 °C69 %1001.4 hPa11.3 kmWest (280°)31.5 km/h38.9 km/hSnowLight Snow
12:15 PM-8.7 °C-13.7 °C68 %1001.4 hPa11.3 kmWest (280°)24.1 km/h38.9 km/hSnowLight Snow
12:35 PM-8.7 °C-13.5 °C69 %1001.4 hPa6.4 kmWNW (290°)20.4 km/h35.2 km/hSnowLight Snow
12:55 PM-8.7 °C-12.5 °C74 %1001.4 hPa2.9 kmWest (280°)24.1 km/h35.2 km/hSnowLight Snow
1:15 PM-8.7 °C-13.4 °C69 %1001.7 hPa11.3 kmWest (280°)25.9 km/h33.3 km/hSnowLight Snow
1:35 PM-8.7 °C-14 °C66 %1001.7 hPa16.1 kmWest (280°)24.1 km/h33.3 km/hMostly Cloudy
1:55 PM-8.7 °C-13.8 °C67 %1002 hPa16.1 kmWest (280°)25.9 km/h35.2 km/hOvercast
2:15 PM-8.7 °C-13.8 °C67 %1002.4 hPa8 kmWNW (290°)22.2 km/hSnowLight Snow
2:35 PM-8.7 °C-13.2 °C70 %1002.4 hPa11.3 kmWest (270°)27.8 km/h35.2 km/hSnowLight Snow
2:55 PM-8.7 °C-13.1 °C71 %1002.7 hPa11.3 kmWest (270°)18.5 km/h29.6 km/hSnowLight Snow
3:15 PM-8.7 °C-12.9 °C72 %1003 hPa11.3 kmWest (260°)14.8 km/hSnowLight Snow
3:35 PM-8.7 °C-12.2 °C76 %1003.4 hPa4 kmWest (270°)18.5 km/h27.8 km/hSnowLight Snow
3:55 PM-8.7 °C-12.1 °C77 %1003.7 hPa0.8 kmWNW (290°)18.5 km/hSnowLight Snow
4:15 PM-8.7 °C-12.4 °C75 %1004.1 hPa3.2 kmWest (280°)22.2 km/h31.5 km/hSnowLight Snow
4:35 PM-8.7 °C-13 °C72 %1004.4 hPa16.1 kmWest (270°)18.5 km/hOvercast
4:54 PM-8.7 °C-12.5 °C74 %1004.4 hPa16.1 kmWest (280°)16.7 km/h25.9 km/hSnowLight Snow
9:17 PM-10 °C-13 °C79 %1007.5 hPa1.6 kmWNW (290°)9.3 km/hSnowSnow
Hourly data recorded from KCAD, located 0 kilometers away from Tustin, Michigan







STORIES FROM OUR PARTNERS